Time,TemperatureF,DewpointF,PressureIn,WindDirection,WindDirectionDegrees,WindSpeedMPH,WindSpeedGustMPH,Humidity,HourlyPrecipIn,Conditions,Clouds,dailyrainin,SolarRadiationWatts/m^2,SoftwareType,DateUTC
2013-01-16 00:02:00,43.0,14.0,-100.00,South,174,4.0,14.0,30,0.00,,,0.18,0.000000,,2013-01-16 08:02:00,
2013-01-16 00:23:00,43.0,14.0,-100.00,South,174,4.0,14.0,30,0.00,,,0.18,0.000000,,2013-01-16 08:23:00,
2013-01-16 00:32:00,43.0,14.0,-100.00,South,174,4.0,14.0,30,0.00,,,0.18,0.000000,,2013-01-16 08:32:00,
2013-01-16 00:42:00,43.0,14.0,-100.00,South,174,4.0,14.0,30,0.00,,,0.18,0.000000,,2013-01-16 08:42:00,
2013-01-16 00:52:00,43.0,14.0,-100.00,South,174,4.0,14.0,30,0.00,,,0.18,0.000000,,2013-01-16 08:52:00,
2013-01-16 01:02:00,48.0,8.0,-100.00,South,170,7.0,14.0,19,0.00,,,0.18,0.000000,,2013-01-16 09:02:00,
2013-01-16 01:33:00,48.0,8.0,-100.00,South,170,7.0,14.0,19,0.00,,,0.18,0.000000,,2013-01-16 09:33:00,
2013-01-16 02:02:00,42.0,10.0,-100.00,NNE,27,1.0,19.0,27,0.00,,,0.18,0.000000,,2013-01-16 10:02:00,
2013-01-16 02:32:00,42.0,10.0,-100.00,NNE,27,1.0,19.0,27,0.00,,,0.18,0.000000,,2013-01-16 10:32:00,
2013-01-16 02:43:00,42.0,10.0,-100.00,NNE,27,1.0,19.0,27,0.00,,,0.18,0.000000,,2013-01-16 10:43:00,
2013-01-16 02:52:00,42.0,10.0,-100.00,NNE,27,1.0,19.0,27,0.00,,,0.18,0.000000,,2013-01-16 10:52:00,
2013-01-16 03:02:00,43.0,6.0,-100.00,West,273,0.0,5.0,21,0.00,,,0.18,0.000000,,2013-01-16 11:02:00,
2013-01-16 03:33:00,43.0,6.0,-100.00,West,273,0.0,5.0,21,0.00,,,0.18,0.000000,,2013-01-16 11:33:00,
2013-01-16 03:43:00,43.0,6.0,-100.00,West,273,0.0,5.0,21,0.00,,,0.18,0.000000,,2013-01-16 11:43:00,
2013-01-16 03:53:00,43.0,6.0,-100.00,West,273,0.0,5.0,21,0.00,,,0.18,0.000000,,2013-01-16 11:53:00,
2013-01-16 04:02:00,43.0,4.0,-100.00,ENE,72,0.0,5.0,19,0.00,,,0.18,0.000000,,2013-01-16 12:02:00,
2013-01-16 04:33:00,43.0,4.0,-100.00,ENE,72,0.0,5.0,19,0.00,,,0.18,0.000000,,2013-01-16 12:33:00,
2013-01-16 04:43:00,43.0,4.0,-100.00,ENE,72,0.0,5.0,19,0.00,,,0.18,0.000000,,2013-01-16 12:43:00,
2013-01-16 04:53:00,43.0,4.0,-100.00,ENE,72,0.0,5.0,19,0.00,,,0.18,0.000000,,2013-01-16 12:53:00,
2013-01-16 05:33:00,44.0,8.0,-100.00,North,10,3.0,18.0,22,0.00,,,0.18,0.000000,,2013-01-16 13:33:00,
2013-01-16 05:43:00,44.0,8.0,-100.00,North,10,3.0,18.0,22,0.00,,,0.18,0.000000,,2013-01-16 13:43:00,
2013-01-16 05:53:00,44.0,8.0,-100.00,North,10,3.0,18.0,22,0.00,,,0.18,0.000000,,2013-01-16 13:53:00,
2013-01-16 06:33:00,46.0,1.0,-100.00,ESE,118,5.0,13.0,15,0.00,,,-99.99,0.000000,,2013-01-16 14:33:00,
2013-01-16 07:02:00,40.0,5.0,-100.00,SE,133,2.0,15.0,23,0.00,,,0.18,0.000000,,2013-01-16 15:02:00,
2013-01-16 07:33:00,40.0,5.0,-100.00,SE,133,2.0,15.0,23,0.00,,,0.18,0.000000,,2013-01-16 15:33:00,
2013-01-16 07:43:00,40.0,5.0,-100.00,SE,133,2.0,15.0,23,0.00,,,0.18,0.000000,,2013-01-16 15:43:00,
2013-01-16 07:53:00,40.0,5.0,-100.00,SE,133,2.0,15.0,23,0.00,,,0.18,0.000000,,2013-01-16 15:53:00,
2013-01-16 08:02:00,40.0,8.0,-100.00,ESE,115,1.0,10.0,26,0.00,,,0.18,7.000000,,2013-01-16 16:02:00,
2013-01-16 08:33:00,40.0,8.0,-100.00,ESE,115,1.0,10.0,26,0.00,,,0.18,7.000000,,2013-01-16 16:33:00,
2013-01-16 08:43:00,40.0,8.0,-100.00,ESE,115,1.0,10.0,26,0.00,,,0.18,7.000000,,2013-01-16 16:43:00,
2013-01-16 08:53:00,40.0,8.0,-100.00,ESE,115,1.0,10.0,26,0.00,,,0.18,7.000000,,2013-01-16 16:53:00,
2013-01-16 09:33:00,50.0,3.0,-100.00,WSW,248,7.0,15.0,14,0.00,,,-99.99,80.000000,,2013-01-16 17:33:00,
2013-01-16 10:33:00,57.0,-4.0,-100.00,SSW,200,4.0,24.0,8,0.00,,,0.18,146.000000,,2013-01-16 18:33:00,
2013-01-16 10:43:00,57.0,-4.0,-100.00,SSW,200,4.0,24.0,8,0.00,,,0.18,146.000000,,2013-01-16 18:43:00,
2013-01-16 10:53:00,57.0,-4.0,-100.00,SSW,200,4.0,24.0,8,0.00,,,0.18,146.000000,,2013-01-16 18:53:00,
2013-01-16 11:33:00,65.0,2.0,-100.00,NW,313,3.0,11.0,8,0.00,,,0.13,403.000000,,2013-01-16 19:33:00,
2013-01-16 12:23:00,66.0,-7.0,-100.00,North,350,2.0,11.0,5,-99.99,,,-99.99,661.000000,,2013-01-16 20:23:00,
2013-01-16 12:33:00,66.0,-7.0,-100.00,North,350,2.0,11.0,5,-99.99,,,-99.99,661.000000,,2013-01-16 20:33:00,
2013-01-16 13:33:00,62.0,-10.0,-100.00,SSW,197,6.0,18.0,5,-99.99,,,0.02,671.000000,,2013-01-16 21:33:00,
2013-01-16 14:23:00,64.0,-5.0,-100.00,ENE,69,6.0,13.0,6,0.00,,,0.00,613.000000,,2013-01-16 22:23:00,
2013-01-16 14:33:00,64.0,-5.0,-100.00,ENE,69,6.0,13.0,6,0.00,,,0.00,613.000000,,2013-01-16 22:33:00,
2013-01-16 14:43:00,64.0,-5.0,-100.00,ENE,69,6.0,13.0,6,0.00,,,0.00,613.000000,,2013-01-16 22:43:00,
2013-01-16 14:52:00,64.0,-5.0,-100.00,ENE,69,6.0,13.0,6,0.00,,,0.00,613.000000,,2013-01-16 22:52:00,
2013-01-16 15:02:00,62.0,5.0,-100.00,ENE,71,2.0,21.0,10,-99.99,,,0.00,486.000000,,2013-01-16 23:02:00,
2013-01-16 15:33:00,62.0,5.0,-100.00,ENE,71,2.0,21.0,10,-99.99,,,0.00,486.000000,,2013-01-16 23:33:00,
2013-01-16 15:43:00,62.0,5.0,-100.00,ENE,71,2.0,21.0,10,-99.99,,,0.00,486.000000,,2013-01-16 23:43:00,
2013-01-16 15:53:00,62.0,5.0,-100.00,ENE,71,2.0,21.0,10,-99.99,,,0.00,486.000000,,2013-01-16 23:53:00,
2013-01-16 16:33:00,60.0,-1.0,-100.00,WSW,237,4.0,14.0,8,0.00,,,-99.99,234.000000,,2013-01-17 00:33:00,
2013-01-16 17:22:00,51.0,-14.0,-100.00,SE,136,8.0,20.0,6,-99.99,,,-99.99,15.000000,,2013-01-17 01:22:00,
2013-01-16 18:32:00,44.0,-9.0,-100.00,SSE,156,2.0,17.0,10,0.00,,,-99.99,1.000000,,2013-01-17 02:32:00,
2013-01-16 18:43:00,44.0,-9.0,-100.00,SSE,156,2.0,17.0,10,0.00,,,-99.99,1.000000,,2013-01-17 02:43:00,
2013-01-16 18:52:00,44.0,-9.0,-100.00,SSE,156,2.0,17.0,10,0.00,,,-99.99,1.000000,,2013-01-17 02:52:00,
2013-01-16 19:33:00,42.0,-2.0,-100.00,SE,132,1.0,13.0,15,0.00,,,0.00,0.000000,,2013-01-17 03:33:00,
2013-01-16 19:43:00,42.0,-2.0,-100.00,SE,132,1.0,13.0,15,0.00,,,0.00,0.000000,,2013-01-17 03:43:00,
2013-01-16 19:52:00,42.0,-2.0,-100.00,SE,132,1.0,13.0,15,0.00,,,0.00,0.000000,,2013-01-17 03:52:00,
2013-01-16 20:02:00,38.0,4.0,-100.00,ESE,119,1.0,7.0,24,0.00,,,0.00,0.000000,,2013-01-17 04:02:00,
2013-01-16 20:33:00,38.0,4.0,-100.00,ESE,119,1.0,7.0,24,0.00,,,0.00,0.000000,,2013-01-17 04:33:00,
2013-01-16 20:43:00,38.0,4.0,-100.00,ESE,119,1.0,7.0,24,0.00,,,0.00,0.000000,,2013-01-17 04:43:00,
2013-01-16 20:52:00,38.0,4.0,-100.00,ESE,119,1.0,7.0,24,0.00,,,0.00,0.000000,,2013-01-17 04:52:00,
2013-01-16 21:02:00,37.0,0.0,-100.00,ESE,108,0.0,9.0,20,0.00,,,0.00,0.000000,,2013-01-17 05:02:00,
2013-01-16 21:33:00,37.0,0.0,-100.00,ESE,108,0.0,9.0,20,0.00,,,0.00,0.000000,,2013-01-17 05:33:00,
2013-01-16 21:43:00,37.0,0.0,-100.00,ESE,108,0.0,9.0,20,0.00,,,0.00,0.000000,,2013-01-17 05:43:00,
2013-01-16 21:53:00,37.0,0.0,-100.00,ESE,108,0.0,9.0,20,0.00,,,0.00,0.000000,,2013-01-17 05:53:00,
2013-01-16 22:02:00,35.0,3.0,-100.00,SE,130,1.0,8.0,25,-99.99,,,0.00,0.000000,,2013-01-17 06:02:00,
2013-01-16 22:33:00,35.0,3.0,-100.00,SE,130,1.0,8.0,25,-99.99,,,0.00,0.000000,,2013-01-17 06:33:00,
2013-01-16 22:42:00,35.0,3.0,-100.00,SE,130,1.0,8.0,25,-99.99,,,0.00,0.000000,,2013-01-17 06:42:00,
2013-01-16 22:52:00,35.0,3.0,-100.00,SE,130,1.0,8.0,25,-99.99,,,0.00,0.000000,,2013-01-17 06:52:00,
2013-01-16 23:02:00,33.0,0.0,-100.00,NNW,337,3.0,14.0,24,0.00,,,0.00,0.000000,,2013-01-17 07:02:00,
2013-01-16 23:33:00,33.0,0.0,-100.00,NNW,337,3.0,14.0,24,0.00,,,0.00,0.000000,,2013-01-17 07:33:00,